THOR ABLESTAR DEB, 119

Orbit data source: Space-Track

THOR ABLESTAR DEB, 119 is space debris in LEO originally from a launch on Thu, 29 Jun 1961 UTC launched from the Air Force Eastern Test Range (AFETR). Debris objects in space refer to the collection of defunct objects orbiting the Earth. Examples of debris include non-operational satellites, rocket bodies, and fragments generated from explosions, collisions, or faulty payload assembly.

Loading next visibility...
Identifier
119, 1961-015D
Orbit
LEO
Country
Flag of USUS
Related business
Manufacturer
Unknown
Mission
Spacecraft
Bus & Motor
Unknown
Mass
Unknown
Launch date (UTC)
1961-06-29 (64 years ago)
Launch vehicle
Unknown
Launch site
Air Force Eastern Test Range (AFETR)
Object type
Payload
Rocket body
Debris
Shape & HBR
Unknown
Radar Cross Section
0.250 m², Medium (>0.1 m² and < 1m²)

Expand to show TLE details & history
Last TLE update: 18 hours ago

TLE from 18 hours ago
0 THOR ABLESTAR DEB
1 00119U 61015D   25257.59686560  .00000657  00000-0  29199-3 0  9991
2 00119  66.7286  25.3102 0093718 100.9956 260.1700 14.26733390318993
Epoch: 2025-09-14T14:19Z
TLE epoch observation values (Epoch: 2025-09-14T14:19:29.187Z)
Latitude
-0.00005°
Longitude
176.62497°
Altitude
816.879 km
Speed
7.439 km/s
True Right ascension
01h 41m 14s
True Declination
0° 00' 00"
Sunlit
Object was in full shadow at epoch
Visualization orbit readout
Latitude
Unknown
Longitude
Unknown
Altitude
Unknown
Speed
Unknown
Apparent Right ascension
Unknown
Apparent Declination
Unknown
Sunlit
N/A
Visualization observer readout
Local Sidereal Time
00:36:45
Azimuth
Unknown
Elevation
Unknown
Doppler factor
Unknown
Orbital elements
Apogee altitude
868.326 km
Perigee altitude
733.763 km
Semi-major axis
7,179.182 km
Eccentricity
0.00937
Inclination
66.7286°
RAAN
25.3102°
Arg. of periapsis
100.9956°
True anomaly
259.11401°
Mean anomaly
260.17°
Eccentric anomaly
259.64179°
Mean motion
3.56805 °/min
Orbital period
100.9 mins
BSTAR
0.00029199
Loading maneuver chart data...
Computing Atmospheric mass density...

Documentation

Showing up to 5 results
|